COSMOS 2398

Satellite information

Favourite Embed

Satellite Type and Status

PAYLOADIN ORBIT

Key statistics

Satellite COSMOS 2398 at a glance.

Uptime

8187

Days in orbit

Revolutions

≈ 13.7

Per day

Orbit

LEO

Low Earth Orbit

Inclination

82.9

Latest

Satellite identification and parameters

Extended collection of information and parameters for COSMOS 2398.

Object identification

Identified? True

Debris? False

Object name: COSMOS 2398

International designator: 2003-023A

Object number (NORAD): 27818

Object ID (CCSDS): 27818

Country: COMMONWEALTH OF INDEPENDENT STATES (CIS)

Current information (Y/N): Y

RCS size: LARGE

Orbital parameters

Period: 104.927 minutes

Inclination: 82.9452 deg

SMA: 7369.174 km

Apoapsis: 1013.341 km

Periapsis: 968.737 km

RAAN: 303.6634 deg

Eccentricy: 0.0030264

Argument of periapsis: 227.8191 deg

Mean anomaly: 306.0293 deg

Mean motion: 13.72380476 rev/day

Mean motion (dot): 0.00000088 rev/day2

B* drag term: 0.000080343 1/REarth

Two-line elements (TLE)

Creation date: Oct. 31, 2025, 11:16 p.m.

Reference frame: TEME

Reference center: EARTH

Epoch: Oct. 31, 2025, 5:39 p.m. UTC

TLE line 0: 0 COSMOS 2398

TLE line 1: 1 27818U 03023A 25304.73542035 .00000088 00000-0 80343-4 0 9995

TLE line 2: 2 27818 82.9452 303.6634 0030264 227.8191 306.0293 13.72380476122401

Live tracking on map

Real-time ground track for satellite COSMOS 2398.

In-orbit conjunctions

There are no conjunctions computed for COSMOS 2398, at the moment. Check back to stay up to date, as we update our databases every day.

Go to all conjunctions

Associated space launch

Navigation satellite providing location information for the Tsiklon-B navigation system

COSMOS 2398 was lifted into orbit during the mission ‘Kosmos-3M | Parus 94’, on board a Kosmos-3M space rocket.

The launch took place on June 4, 2003, 7:23 p.m. from 132/1 (132L).

For more information about the launch, click the button.

Launch to space Kosmos-3M | Parus 94
Kosmos-3M | Parus 94

Agency: N/A

Status: Launch Successful

Launch date: June 4, 2003, 7:23 p.m. UTC

Rocket: Kosmos-3M

Launch pad: 132/1 (132L)

Location: Plesetsk Cosmodrome, Russian Federation

...

Latest news about this satellite

There are no fresh news available about this satellite. Check back as we update our databases every day.


Newsletter sign-up

Weekly statistics, charts and insights to help you stay on top of the space industry.